CAPE
10 13 6 3 2 3 2 2 3 2 2 4 9 6 9 2 0 0 0 0 0 0
13 6 3 3 2 2 2 2 2 0 1 2 6 5 4 10 1 0 0 0 0 0
11 17 7 4 2 1 2 3 1 2 2 2 5 8 0 1 2 1 2 1 1 0
9 22 5 2 2 2 1 5 4 3 0 0 0 4 0 4 6 6 3 2 1 0
2 9 3 2 2 2 2 11 11 1 1 0 0 1 3 5 6 3 1 0 2 1
1 3 2 2 2 3 2 2 13 2 0 0 0 0 4 2 7 4 2 5 9 11
0 0 11 2 2 2 2 1 2 9 8 1 0 2 6 4 4 1 6 10 3 7
0 0 0 4 1 0 1 1 5 2 2 2 2 0 0 1 0 0 2 1 4 1
0 0 0 1 0 0 0 0 6 4 4 2 2 16 1 14 0 2 1 0 1 0
0 0 0 0 0 0 0 0 1 17 13 6 2 5 13 11 1 0 3 2 3 0
0 0 0 0 0 0 0 0 0 1 6 15 17 11 6 4 2 2 2 1 2 0
0 0 0 0 0 0 0 0 0 0 2 3 17 22 12 2 1 1 1 2 1 2
0 0 0 0 0 0 0 0 0 0 0 3 4 12 14 4 1 1 4 5 12 12
0 0 0 0 0 0 0 0 0 0 0 0 1 14 8 1 0 1 9 1 5 17
CIN
-1 0 0 0 0 0 0 0 0 0 0 0 0 0 0 0 0 0 0 0 0 0
0 0 0 0 0 0 0 0 0 0 0 0 -3 0 0 0 0 0 0 0 0 0
0 0 0 0 0 0 0 0 0 0 0 -1 0 -2 0 0 -1 -1 -1 -1 -5 0
-1 0 0 0 0 0 -1 0 0 -3 -1 -1 -4 -4 0 -3 -1 -1 0 0 0 0
-1 0 0 0 0 0 0 -5 0 -5 -6 -3 -7 -5 -1 -1 -1 0 0 -3 0 0
0 -3 0 0 0 0 0 0 0 -9 -10 -13 0 -5 -2 -7 -2 -1 -1 -1 -1 0
0 0 0 0 0 0 0 0 -1 0 -1 -6 -1 -6 -7 -3 -3 -2 -1 -2 -2 -1
0 0 0 -1 0 0 0 0 0 0 0 0 0 -1 -7 -8 -2 -4 -3 -2 -3 -2
0 0 0 0 0 0 0 0 0 0 0 0 0 -1 0 -1 -1 -1 -3 -4 -3 -1
0 0 0 0 0 0 0 0 0 0 0 0 0 0 0 -1 -9 -1 0 0 -3 -1
0 0 0 0 0 0 0 0 0 0 0 0 0 0 0 0 0 -1 0 -1 0 0
0 0 0 0 0 0 0 0 0 0 -1 0 0 0 0 0 0 0 0 0 0 0
0 0 0 0 0 0 0 0 0 0 0 0 -5 -1 0 0 0 -1 0 0 0 0
0 0 0 0 0 0 0 0 0 0 0 0 -8 -3 -2 -1 0 -3 0 0 0 0
Wind_Speed
46 45 45 36 17 22 18 15 13 8 5 4 2 12 15 22 23 26 29 30 31 34
43 28 26 26 13 22 11 11 14 13 8 5 3 2 13 15 18 21 23 26 28 28
25 23 31 32 30 26 12 12 22 17 14 10 9 8 7 6 10 15 19 24 27 26
21 23 34 37 37 39 34 28 24 22 18 16 12 10 9 7 5 14 14 20 26 29
20 25 31 33 34 31 28 26 25 23 20 18 14 10 9 8 6 5 8 14 17 23
22 21 25 16 15 22 28 33 26 24 20 18 13 12 11 10 9 9 6 5 5 11
24 24 24 22 18 15 16 31 37 28 23 16 9 10 11 11 11 10 10 8 16 16
26 28 27 29 28 27 28 33 41 39 36 29 2 6 11 14 14 13 12 12 18 18
27 29 31 32 34 34 36 41 44 46 38 37 28 18 11 10 10 13 13 14 14 19
30 33 34 35 37 42 42 45 48 48 47 43 35 25 13 12 13 15 13 13 14 16
31 35 36 38 40 41 42 45 47 45 50 46 41 31 21 22 23 16 3 15 15 15
33 36 38 40 40 40 42 44 44 42 34 44 42 35 27 21 22 22 24 27 26 24
33 37 40 40 41 40 41 41 38 37 35 24 19 33 30 24 23 21 24 27 30 31
34 36 37 37 38 38 39 41 39 36 31 27 24 18 28 27 24 23 21 28 26 31
Wind_Direction
4 359 349 1 308 1 359 348 338 323 340 337 277 331 292 281 281 276 271 267 268 267
12 12 321 314 346 12 341 344 14 50 62 72 104 147 310 293 286 282 279 272 269 270
13 340 327 325 323 21 314 31 43 57 65 92 115 123 148 324 303 292 285 278 270 270
358 342 334 336 338 344 3 33 42 49 60 69 90 113 126 88 335 304 294 285 276 271
8 24 338 339 340 338 337 43 43 47 57 63 80 96 103 111 101 46 324 304 295 281
20 15 348 10 23 339 340 34 40 42 48 55 77 83 96 108 121 143 19 354 321 297
29 29 38 39 38 33 36 40 27 32 34 50 82 92 98 111 116 131 124 129 176 176
38 41 44 46 48 48 47 43 29 22 6 351 239 129 118 110 113 115 117 139 187 177
43 45 47 49 48 48 46 38 27 17 25 12 334 360 146 149 124 124 124 127 137 188
47 48 49 49 48 46 44 39 33 26 20 15 5 341 310 149 128 133 133 142 149 162
49 49 49 48 46 45 43 40 37 40 27 21 16 12 8 15 24 66 46 129 132 125
51 50 49 48 46 46 45 43 46 50 58 21 23 22 22 17 23 23 28 40 36 35
53 52 50 50 48 49 49 51 55 59 63 62 28 24 25 23 22 22 24 28 35 42
55 54 54 53 53 53 54 56 59 63 66 65 68 45 24 25 24 23 24 31 28 40